Terug naar catalogus

STARLINK-34148

ActiefCommunicatieVLEO
NORAD 64111·PAYLOAD·🇺🇸 United States

Gelanceerd May 23, 2025 vanaf Vandenberg Space Force Base

Loading…

Volgende Passages (komende 24 uur)

TLE

VersSource: CelesTrak SupGP

Epoch: Sep 15, 2026, 03:46 UTC

1 64111C 25110R   26258.15743056 -.00012832  00000+0 -41265-3 0  2582
2 64111  53.1586 225.1064 0001371  80.3981 270.0050 15.31708034    11

Volg STARLINK-34148 in realtime met AllMySat

Download on the App Store